Temp
69 69 70 71 67 67 68 67 67 67 66 66 66 66 65 65 65 66 65 66 70 73 76 77 76 75 74 74 74 73 73 73 72 72 72 71 71 71 71 71 71 71 71
65 65 67 66 68 67 68 68 67 66 66 66 66 67 67 66 67 67 66 67 68 70 74 76 76 76 75 75 75 74 73 73 73 72 72 72 71 71 71 71 71 71 71
64 65 65 64 66 66 66 67 66 66 66 66 65 66 68 67 67 68 66 66 67 67 70 75 75 76 76 76 76 75 74 73 73 72 72 72 71 71 71 71 71 71 71
65 64 64 64 66 65 65 66 66 65 66 66 66 65 66 67 66 65 69 67 67 69 68 70 73 74 75 76 77 77 75 73 72 72 72 72 71 71 71 71 71 71 71
65 62 63 64 64 64 64 65 64 64 65 65 65 65 64 64 64 66 64 66 68 69 69 68 68 69 71 74 76 77 77 74 73 72 72 72 71 71 71 71 71 71 71
63 62 62 63 63 61 62 62 62 62 62 62 63 63 64 65 65 64 63 64 63 68 68 68 67 67 66 71 73 75 76 76 75 73 72 72 71 71 72 72 71 71 71
62 61 62 63 62 61 61 61 60 60 60 61 59 61 62 64 64 64 64 63 65 68 67 68 67 66 68 67 70 72 74 75 75 74 73 72 72 72 72 72 72 72 72
60 61 61 62 64 61 59 59 60 59 59 62 58 57 54 58 62 63 64 64 64 65 65 67 67 68 67 68 67 68 71 74 75 75 74 73 72 72 72 73 73 72 72
56 56 57 60 61 61 60 59 60 60 60 61 62 57 54 52 55 61 62 64 65 65 66 66 65 66 67 67 65 66 66 69 73 75 75 75 73 73 73 73 73 73 72
54 53 55 56 57 62 61 60 62 61 59 58 58 59 58 57 53 53 58 61 63 63 63 63 64 65 65 66 65 64 65 65 70 73 75 75 75 74 74 74 73 73 72
51 50 51 54 53 55 56 60 61 60 60 57 57 58 57 57 57 56 55 57 58 61 63 63 64 65 66 65 64 63 63 66 70 72 74 75 76 76 75 75 74 73 72
47 48 48 50 50 51 52 54 56 56 57 57 58 58 58 57 56 56 55 56 57 60 59 61 63 64 65 65 64 62 62 64 69 71 74 75 75 76 75 75 74 73 72
44 44 45 46 47 48 50 50 50 52 52 51 52 53 54 52 53 54 56 55 55 59 60 62 64 65 64 62 64 60 61 63 66 70 73 74 73 73 73 74 74 73 73
45 47 46 46 48 48 48 48 47 49 50 49 50 50 51 51 52 52 51 49 49 54 57 58 60 60 59 59 59 58 61 61 63 66 70 71 69 68 68 70 72 71 71
48 47 47 47 47 48 47 47 46 46 47 48 48 48 49 50 51 49 49 49 47 46 48 54 53 55 55 56 56 57 58 60 61 62 63 64 64 63 64 65 68 68 68
44 44 45 46 46 46 47 46 45 46 45 45 45 45 45 47 47 47 47 49 49 45 43 50 50 51 52 53 54 55 56 54 58 60 61 60 60 59 60 60 61 63 64
41 41 43 43 44 44 44 44 44 44 44 44 45 45 44 46 44 44 46 45 46 46 42 45 46 49 48 49 52 53 54 54 56 57 58 59 59 59 60 59 60 60 60
39 40 40 40 41 41 41 40 40 39 38 38 39 40 40 45 41 41 43 42 43 44 42 39 43 44 44 48 48 48 52 53 53 55 55 55 57 58 58 58 58 58 58
36 37 38 38 38 39 39 38 38 37 37 37 38 38 39 39 37 38 40 39 40 43 41 38 38 42 43 45 44 47 46 48 50 51 54 54 55 55 56 56 56 56 56
34 34 35 35 36 37 39 38 38 36 36 38 39 39 39 38 38 38 40 39 39 37 39 37 37 38 40 42 40 39 39 43 43 48 51 52 53 53 54 55 55 54 53
34 33 33 33 34 37 41 37 37 35 34 34 35 37 39 41 43 44 41 38 38 37 35 35 35 35 35 36 35 36 36 38 40 45 44 46 46 48 51 53 52 52 52
32 32 32 32 32 38 43 44 41 35 34 34 33 34 36 39 40 44 44 43 41 37 34 33 32 32 33 34 35 35 34 32 32 41 39 39 43 44 48 50 52 52 52
30 30 30 31 31 32 43 44 44 35 33 33 33 33 35 39 37 36 40 42 41 42 42 36 33 32 31 35 35 34 33 31 32 37 37 35 41 41 47 50 51 51 51
29 29 30 30 30 34 42 43 44 35 34 34 34 33 32 33 34 38 35 34 34 35 36 37 34 34 35 36 35 35 34 33 36 37 38 32 38 38 42 46 49 50 50
28 28 30 30 29 30 41 43 39 33 32 32 34 35 35 34 40 43 36 34 33 33 40 42 42 42 42 42 41 35 31 30 29 33 37 34 35 36 39 40 43 48 49
30 30 30 29 34 29 38 41 39 33 30 31 32 34 39 39 41 42 37 32 30 32 32 32 33 34 36 34 39 33 30 29 30 28 32 30 33 33 34 37 38 42 45
MSLP
1013.99 1013.53 1013.33 1013.13 1013.03 1013.07 1013.12 1013.26 1013.35 1013.45 1013.72 1014.00 1014.25 1014.48 1014.67 1014.77 1014.79 1014.80 1014.81 1014.79 1014.85 1014.95 1014.86 1015.06 1015.35 1015.64 1015.84 1016.11 1016.27 1016.38 1016.54 1016.68 1016.88 1017.07 1017.29 1017.42 1017.56 1017.70 1017.78 1017.86 1017.97 1018.09 1018.18
1013.70 1013.47 1013.19 1012.90 1012.61 1012.39 1012.50 1012.49 1012.90 1013.13 1013.26 1013.48 1013.72 1013.84 1013.91 1014.03 1014.02 1014.13 1014.28 1014.26 1014.30 1014.41 1014.58 1014.51 1014.72 1015.01 1015.36 1015.61 1015.88 1016.05 1016.14 1016.30 1016.44 1016.65 1016.79 1016.97 1017.07 1017.24 1017.41 1017.49 1017.65 1017.82 1017.91
1013.23 1013.05 1012.97 1012.51 1012.21 1012.17 1012.05 1012.16 1012.30 1012.49 1012.82 1013.09 1013.26 1013.40 1013.38 1013.47 1013.58 1013.55 1013.66 1013.77 1013.83 1013.93 1014.06 1014.09 1014.23 1014.37 1014.66 1014.89 1015.14 1015.42 1015.66 1015.88 1016.01 1016.16 1016.27 1016.40 1016.58 1016.76 1016.89 1017.02 1017.15 1017.38 1017.57
1012.79 1012.58 1012.60 1012.47 1011.90 1011.94 1011.81 1011.98 1012.14 1012.23 1012.28 1012.54 1012.63 1012.78 1013.00 1013.02 1013.24 1013.30 1013.23 1013.37 1013.49 1013.51 1013.62 1013.57 1013.72 1013.89 1014.00 1014.23 1014.43 1014.61 1014.86 1015.07 1015.31 1015.56 1015.74 1015.87 1016.01 1016.16 1016.32 1016.43 1016.61 1016.80 1017.02
1012.34 1012.21 1012.10 1011.83 1011.72 1011.54 1011.41 1011.51 1011.64 1011.70 1011.88 1012.08 1012.12 1012.29 1012.62 1012.93 1013.14 1012.89 1013.01 1013.13 1013.21 1013.17 1013.04 1013.04 1013.17 1013.34 1013.54 1013.60 1013.77 1013.92 1014.03 1014.37 1014.55 1014.82 1015.04 1015.25 1015.45 1015.58 1015.73 1015.83 1015.92 1016.06 1016.31
1012.02 1011.82 1011.69 1011.50 1011.24 1011.37 1011.15 1011.10 1011.18 1011.21 1011.29 1011.45 1011.70 1011.95 1012.00 1012.29 1012.25 1012.35 1012.33 1012.62 1012.93 1013.02 1012.80 1012.56 1012.82 1012.98 1013.16 1013.18 1013.22 1013.26 1013.34 1013.55 1013.82 1014.17 1014.37 1014.51 1014.79 1014.96 1015.04 1015.25 1015.43 1015.48 1015.57
1011.91 1011.61 1011.42 1011.17 1011.01 1010.88 1010.69 1010.65 1010.72 1010.99 1011.06 1011.06 1011.66 1011.66 1011.51 1011.52 1011.81 1011.71 1011.88 1012.12 1012.53 1012.18 1012.25 1011.99 1012.27 1012.37 1012.55 1012.72 1012.75 1012.62 1012.71 1012.78 1012.94 1013.22 1013.56 1013.69 1013.94 1014.21 1014.38 1014.49 1014.66 1014.90 1015.01
1011.82 1011.28 1011.04 1010.74 1010.65 1010.61 1010.57 1010.50 1010.49 1010.68 1010.73 1010.80 1011.16 1011.34 1011.50 1011.28 1011.05 1011.20 1011.26 1011.23 1011.43 1011.46 1011.63 1011.42 1011.33 1011.34 1011.63 1011.77 1011.94 1011.92 1011.97 1012.10 1012.13 1012.35 1012.63 1012.88 1013.08 1013.37 1013.63 1013.78 1013.99 1014.16 1014.41
1012.46 1011.74 1010.99 1010.48 1010.17 1010.28 1010.23 1010.23 1010.25 1010.02 1010.19 1010.33 1010.28 1010.50 1011.22 1010.90 1010.72 1010.58 1010.63 1009.98 1010.19 1010.65 1010.83 1010.73 1010.79 1010.86 1010.91 1011.06 1011.14 1011.13 1011.21 1011.36 1011.24 1011.48 1011.69 1011.86 1012.12 1012.46 1012.69 1012.89 1013.21 1013.47 1013.62
1013.31 1012.64 1011.38 1010.49 1010.06 1009.77 1009.88 1009.82 1009.77 1009.85 1009.96 1010.02 1010.23 1010.06 1010.29 1010.70 1010.43 1010.54 1010.12 1009.86 1009.77 1010.09 1010.21 1010.28 1010.47 1010.33 1010.33 1010.32 1010.31 1010.36 1010.43 1010.61 1010.64 1010.60 1010.85 1010.94 1011.13 1011.40 1011.69 1012.00 1012.29 1012.53 1012.66
1014.18 1013.65 1012.39 1010.98 1010.50 1010.06 1009.98 1009.59 1009.06 1009.34 1009.30 1009.40 1009.66 1009.76 1010.38 1010.33 1010.21 1010.85 1010.51 1010.15 1010.05 1009.82 1009.88 1009.81 1010.00 1009.86 1009.67 1009.63 1009.69 1009.75 1009.75 1009.76 1009.73 1009.79 1009.93 1009.94 1010.11 1010.34 1010.66 1010.93 1011.37 1011.65 1011.71
1014.95 1014.58 1013.44 1012.13 1011.55 1010.94 1010.39 1010.48 1010.40 1009.14 1008.94 1008.92 1009.38 1009.82 1009.99 1010.09 1010.32 1010.50 1010.44 1010.21 1009.92 1009.57 1009.66 1009.66 1009.77 1009.34 1009.28 1009.05 1008.94 1008.84 1008.86 1008.82 1008.93 1009.03 1008.98 1008.93 1009.05 1009.23 1009.50 1009.80 1010.34 1010.63 1010.87
1015.65 1015.18 1014.34 1013.17 1012.46 1012.00 1011.33 1010.53 1010.06 1011.30 1009.53 1008.86 1009.70 1010.19 1010.39 1010.96 1011.02 1010.70 1010.52 1010.44 1010.05 1009.50 1009.48 1009.11 1009.06 1008.83 1008.78 1008.69 1008.45 1008.48 1008.30 1008.27 1008.25 1008.14 1008.16 1008.03 1008.12 1008.21 1008.40 1008.68 1009.14 1009.61 1009.88
1015.99 1015.53 1015.09 1013.96 1013.09 1012.85 1012.40 1012.07 1011.95 1012.88 1011.33 1011.03 1011.02 1010.69 1011.19 1011.47 1011.29 1011.23 1011.30 1011.45 1010.86 1010.13 1009.57 1009.20 1008.86 1009.33 1009.49 1009.62 1009.20 1008.87 1008.14 1007.70 1007.39 1007.34 1007.28 1007.11 1007.05 1007.27 1007.54 1007.72 1008.08 1008.46 1008.86
1016.21 1015.67 1015.22 1014.65 1013.58 1013.16 1013.07 1013.10 1013.48 1014.02 1013.05 1012.23 1011.90 1012.12 1012.24 1012.04 1011.76 1011.91 1012.11 1011.96 1011.89 1011.27 1010.63 1009.89 1009.72 1009.66 1010.03 1009.71 1009.53 1009.19 1008.55 1007.63 1007.17 1006.73 1006.52 1006.33 1006.31 1006.37 1006.75 1007.07 1007.27 1007.54 1007.80
1016.60 1016.10 1015.48 1014.42 1013.89 1014.06 1013.75 1013.65 1013.93 1013.82 1013.19 1013.15 1013.33 1013.17 1012.73 1012.31 1012.14 1012.42 1012.86 1012.54 1012.43 1012.24 1011.88 1011.17 1011.03 1010.91 1010.48 1010.21 1009.55 1009.25 1008.66 1007.69 1006.97 1006.56 1006.06 1005.81 1005.56 1005.80 1006.10 1006.51 1006.61 1006.96 1007.05
1016.94 1016.44 1015.88 1015.40 1015.04 1014.95 1014.87 1014.72 1014.70 1014.41 1014.10 1014.01 1013.72 1013.36 1012.88 1012.76 1012.80 1013.18 1013.01 1012.97 1013.17 1012.65 1012.08 1011.91 1011.84 1011.32 1010.89 1010.52 1009.74 1009.17 1008.80 1007.54 1007.10 1006.49 1005.69 1005.20 1005.12 1005.09 1005.13 1005.72 1006.00 1006.39 1006.72
1017.73 1017.01 1016.27 1015.81 1015.54 1015.38 1015.36 1015.25 1015.28 1015.15 1014.75 1014.58 1014.31 1013.75 1013.54 1013.52 1013.76 1013.60 1013.37 1013.22 1013.25 1013.03 1012.82 1012.46 1011.98 1011.74 1011.43 1010.90 1010.11 1009.26 1008.70 1008.13 1007.67 1007.02 1006.23 1005.62 1005.05 1004.76 1004.70 1004.79 1005.18 1005.46 1006.03
1017.87 1017.61 1017.40 1016.91 1016.33 1015.79 1015.49 1015.37 1015.14 1015.03 1014.88 1014.53 1014.54 1014.47 1014.30 1014.42 1014.14 1013.95 1013.63 1013.12 1013.22 1013.31 1013.19 1012.82 1012.53 1012.24 1011.83 1011.23 1010.48 1009.78 1009.31 1008.50 1007.99 1007.23 1006.30 1005.80 1005.33 1004.85 1004.73 1004.33 1004.41 1004.65 1005.06
1018.02 1017.73 1017.39 1017.09 1016.85 1016.65 1016.34 1015.89 1015.63 1015.60 1015.47 1015.22 1014.74 1014.80 1014.23 1014.04 1014.02 1013.91 1013.49 1013.68 1013.64 1013.24 1013.24 1012.93 1012.77 1012.31 1012.01 1011.60 1011.34 1010.59 1009.41 1008.77 1008.24 1007.34 1006.83 1006.41 1005.74 1005.35 1004.91 1004.59 1004.68 1004.19 1004.14
1018.11 1017.92 1017.66 1017.36 1017.06 1016.68 1016.34 1016.05 1016.06 1015.97 1015.86 1015.67 1015.20 1014.94 1014.78 1014.29 1014.25 1013.83 1013.78 1013.96 1013.52 1013.58 1013.52 1013.14 1012.67 1012.55 1012.34 1011.63 1011.40 1011.19 1010.43 1009.39 1008.36 1007.70 1007.05 1006.76 1006.18 1005.85 1005.01 1004.57 1004.32 1003.69 1003.91
1018.04 1017.78 1017.53 1017.36 1017.12 1016.69 1016.16 1015.81 1015.66 1015.75 1015.66 1015.51 1015.47 1015.30 1015.01 1014.67 1014.37 1014.01 1013.79 1013.59 1013.30 1013.27 1013.18 1012.97 1012.90 1012.72 1012.31 1012.04 1011.75 1011.39 1010.93 1010.26 1009.30 1007.85 1007.77 1006.95 1006.83 1005.68 1005.21 1004.78 1004.41 1003.94 1003.99
1018.27 1017.96 1017.61 1017.28 1016.99 1016.67 1016.19 1015.86 1015.61 1015.61 1015.73 1015.76 1015.56 1015.33 1015.04 1014.65 1014.28 1013.92 1013.62 1013.41 1013.32 1013.22 1013.12 1013.02 1012.97 1012.79 1012.47 1012.06 1011.85 1011.37 1011.07 1010.76 1010.13 1009.02 1008.58 1007.39 1006.70 1005.75 1005.02 1004.33 1004.12 1003.86 1003.64
1018.65 1018.35 1017.95 1017.53 1017.12 1016.57 1016.05 1015.61 1015.28 1015.34 1015.44 1015.32 1015.12 1014.88 1014.77 1014.51 1014.15 1013.69 1013.47 1013.47 1013.33 1013.09 1012.87 1012.74 1012.55 1012.30 1012.05 1011.70 1011.55 1011.30 1010.99 1010.53 1009.85 1009.27 1008.76 1007.76 1006.66 1005.80 1005.00 1004.38 1004.13 1003.56 1003.19
1018.73 1018.41 1018.04 1017.69 1017.33 1016.85 1016.32 1015.84 1015.59 1015.57 1015.45 1015.28 1014.93 1014.66 1014.47 1014.18 1013.85 1013.33 1013.15 1013.14 1012.94 1012.68 1012.35 1012.06 1011.88 1011.67 1011.48 1011.28 1011.09 1010.99 1010.84 1010.64 1009.84 1009.12 1008.36 1007.99 1006.97 1006.29 1005.39 1004.29 1003.63 1003.37 1003.08
1018.36 1018.08 1017.74 1017.46 1017.17 1016.96 1016.53 1016.05 1015.73 1015.59 1015.49 1015.21 1014.85 1014.60 1014.41 1014.00 1013.58 1013.22 1012.91 1012.79 1012.61 1012.25 1012.05 1011.75 1011.63 1011.37 1011.35 1011.19 1010.81 1010.88 1010.87 1010.81 1010.37 1009.41 1008.40 1008.47 1007.85 1007.40 1005.93 1004.42 1003.96 1003.60 1003.14
Wind_Speed
6 5 7 6 6 5 7 7 6 7 8 8 8 8 9 9 8 5 4 12 18 20 19 20 20 19 18 17 17 16 15 15 15 14 13 12 12 11 11 10 9 9 8
7 7 7 6 7 7 7 7 8 8 8 8 9 9 11 9 10 9 6 7 18 19 19 20 20 21 19 19 18 18 17 17 16 16 15 15 15 14 13 13 12 11 10
7 7 7 6 6 5 7 7 7 6 7 6 9 8 9 9 9 9 6 6 8 17 19 20 20 20 20 20 20 20 18 18 17 17 18 17 16 15 16 15 14 13 13
9 7 7 7 7 6 5 6 8 7 7 8 8 8 7 4 4 6 5 5 6 7 14 18 19 20 20 21 22 21 20 20 20 19 19 18 17 17 18 17 16 15 15
10 6 6 8 8 7 7 6 6 6 7 8 8 5 5 5 4 4 4 4 4 7 7 13 17 17 18 21 23 23 21 21 21 21 20 20 19 18 19 19 18 18 17
7 5 6 8 7 6 6 4 6 5 4 5 4 4 4 5 6 6 6 7 7 9 8 8 7 10 15 19 22 23 23 21 20 22 22 21 21 20 20 20 19 19 19
8 7 7 8 7 8 8 7 4 5 5 4 3 3 4 7 9 9 8 8 11 12 9 8 7 6 7 20 22 23 23 24 22 21 22 22 21 21 21 21 20 19 20
8 8 8 9 10 8 5 6 6 3 4 5 4 2 2 2 6 8 7 8 11 8 10 10 10 10 9 8 13 21 23 24 24 24 23 22 22 22 23 22 21 19 19
11 8 6 5 7 7 8 8 7 7 6 4 7 5 3 5 1 3 9 7 10 9 8 8 7 8 8 8 9 12 19 23 24 25 25 24 23 23 24 23 23 21 20
14 15 10 5 6 5 9 9 8 9 4 6 2 3 0 1 2 3 2 3 5 6 6 3 5 8 8 8 11 13 16 20 24 26 27 25 25 25 27 25 23 23 22
12 15 14 10 10 7 10 10 8 11 7 3 3 2 4 3 3 5 4 3 2 3 3 4 7 8 7 7 7 10 16 20 23 25 28 27 26 26 27 25 25 25 23
9 12 14 11 12 10 9 9 8 3 2 6 3 3 1 1 2 4 6 6 6 3 5 6 8 6 7 7 9 13 15 20 23 25 28 28 27 27 28 26 27 26 25
7 10 10 10 10 11 12 10 17 12 6 7 7 4 5 5 3 3 2 2 2 2 3 6 7 7 6 6 7 11 14 17 21 25 29 29 28 27 26 26 27 27 27
6 6 7 8 11 11 11 12 11 7 10 8 7 7 5 4 4 4 4 3 2 2 3 5 1 6 8 8 9 16 11 16 19 22 26 26 24 23 22 23 25 28 29
5 6 7 5 8 9 10 8 7 5 4 7 7 6 5 4 4 5 3 3 2 2 2 2 3 7 8 8 10 11 12 16 17 19 22 24 20 16 15 18 24 24 26
5 6 7 9 10 8 8 7 5 6 7 5 4 5 5 4 6 5 3 2 1 1 3 4 4 7 10 8 10 10 12 15 19 20 20 20 14 10 10 11 11 16 21
7 6 6 6 8 7 7 6 5 7 7 6 6 5 5 6 5 3 2 3 3 2 2 3 3 8 10 12 11 9 9 9 10 17 15 17 17 17 17 16 16 13 11
6 8 8 7 7 6 5 5 5 5 6 6 6 6 7 6 4 3 3 3 2 2 3 7 5 5 9 11 10 12 9 8 8 13 20 17 15 17 17 19 18 17 14
6 5 6 7 8 7 6 6 6 6 6 6 6 5 4 4 4 3 2 3 2 3 2 3 5 4 6 6 9 8 9 9 8 16 18 16 15 14 12 13 16 16 16
5 6 6 5 6 5 5 6 5 5 5 6 6 5 5 5 5 5 4 4 3 3 4 5 5 4 4 6 6 9 10 8 10 11 8 11 14 14 13 12 11 11 11
5 5 5 5 5 4 4 3 2 3 4 5 5 6 5 9 10 6 2 1 3 3 3 4 4 4 5 7 7 7 8 10 10 3 7 7 9 9 8 10 10 11 9
5 5 5 5 5 4 9 10 7 4 5 5 5 5 6 8 8 11 4 2 4 3 3 3 3 6 7 6 5 7 7 8 6 3 12 12 8 9 8 8 12 12 12
4 6 6 5 5 5 9 10 8 1 2 4 4 4 4 4 7 5 7 5 3 5 7 5 5 5 5 7 6 8 7 6 8 10 10 10 8 9 7 8 14 16 16
4 4 5 6 6 5 13 11 10 2 3 5 4 5 4 6 6 8 5 5 6 5 5 4 5 7 6 7 5 5 7 8 7 7 6 7 6 10 10 7 15 17 17
3 3 4 6 5 6 11 11 9 5 5 6 5 5 6 6 12 15 6 5 6 5 7 11 11 13 13 14 11 5 5 7 8 7 6 5 4 8 7 8 7 15 17
3 3 4 3 6 4 10 11 10 3 5 5 5 5 10 11 17 17 9 6 6 8 5 6 5 6 8 7 11 4 3 6 8 5 3 7 8 5 6 3 4 4 6
Wind_Direction
257 244 247 239 222 211 212 209 208 200 202 205 205 207 214 219 225 227 219 217 213 220 211 208 208 212 214 217 218 219 218 218 221 223 226 227 230 232 233 233 232 234 236
257 260 256 246 237 206 209 203 206 204 209 206 212 213 221 221 222 225 220 223 215 215 219 211 211 213 218 221 224 225 224 225 224 226 226 229 229 231 235 235 235 237 238
258 252 261 251 235 235 218 216 209 212 212 204 220 220 225 229 232 232 211 214 217 214 217 217 215 215 218 225 229 229 227 228 230 229 229 231 232 231 233 234 233 233 237
266 252 250 259 240 236 216 208 213 216 215 215 222 225 228 231 243 232 228 222 213 214 222 221 220 220 220 225 231 235 227 223 224 228 229 230 231 230 232 233 232 230 232
272 246 249 253 260 235 222 212 217 211 211 220 224 217 216 217 240 267 281 290 260 220 222 219 219 220 223 222 230 237 239 233 227 225 227 230 232 233 235 237 233 228 227
274 255 262 259 252 245 236 211 214 210 200 195 196 215 211 221 209 235 258 266 255 258 232 220 223 232 230 228 229 233 238 242 238 233 229 229 233 235 235 238 235 234 229
305 292 277 267 251 234 228 217 209 206 222 185 146 235 210 205 213 212 209 222 236 236 227 216 219 216 228 232 234 232 236 238 240 238 235 231 230 234 235 235 233 234 233
298 285 280 271 259 245 236 219 206 215 230 191 191 152 262 254 218 223 215 204 227 233 244 231 213 214 217 220 225 230 233 238 238 240 238 235 232 231 234 234 232 232 233
357 343 314 294 252 235 238 226 225 203 206 207 215 157 184 223 179 193 219 201 220 224 230 231 231 233 223 221 220 227 229 234 234 238 239 237 233 233 233 232 234 234 230
359 344 330 347 318 255 245 224 220 229 211 215 217 241 346 153 171 310 294 255 229 226 230 236 256 239 221 224 225 224 223 229 237 240 241 238 236 233 237 234 232 232 227
0 350 350 18 23 35 22 283 208 218 214 204 192 154 215 197 201 231 250 258 288 254 261 227 233 251 241 227 228 234 232 232 236 241 243 240 237 236 238 237 234 232 227
358 351 356 13 17 11 35 26 6 34 97 81 62 62 44 183 187 218 241 242 239 223 220 233 247 242 245 238 233 232 230 232 239 244 247 247 243 242 236 232 235 233 229
354 351 356 15 24 16 19 35 38 340 46 50 49 69 65 55 22 347 321 321 301 251 245 227 233 236 240 245 249 245 248 245 241 244 248 253 254 248 238 231 234 235 231
318 331 351 6 30 25 26 32 51 356 5 41 42 45 68 61 55 32 34 10 325 289 256 264 236 34 26 359 338 323 284 262 251 250 251 249 249 246 240 234 234 237 235
352 354 7 4 32 29 30 36 55 15 4 35 33 26 48 47 49 62 57 41 1 328 336 359 351 26 1 343 338 333 326 302 274 253 249 249 245 239 240 242 240 234 234
342 354 4 17 32 28 33 33 30 357 24 19 23 32 40 26 66 39 358 8 34 73 286 4 344 338 338 332 322 328 316 317 290 269 253 245 230 228 234 238 245 254 239
355 354 358 17 27 27 34 41 29 22 29 24 16 28 30 35 57 30 357 52 333 321 268 293 305 324 342 324 325 330 312 333 340 331 281 249 244 243 240 247 257 245 251
358 355 1 11 14 20 32 38 37 24 22 18 6 20 31 32 30 7 330 53 313 339 326 301 309 344 325 319 318 325 326 332 334 338 337 345 301 258 244 238 234 220 220
2 6 13 1 356 358 16 18 32 22 10 12 5 6 38 18 359 339 315 357 313 327 302 306 314 318 310 311 325 334 334 340 339 337 325 330 333 331 288 240 215 207 210
18 9 8 10 4 352 355 1 18 15 5 359 3 359 4 0 344 324 18 21 9 358 338 327 319 311 321 341 328 335 334 341 327 323 333 341 349 328 319 312 277 222 202
1 1 9 5 360 349 344 0 50 35 12 355 354 351 342 336 330 338 70 2 17 345 311 319 333 332 318 340 345 329 322 325 323 272 351 342 341 329 331 324 295 302 275
352 357 357 355 351 346 348 359 11 22 7 5 345 332 330 330 330 321 288 349 17 338 329 330 314 317 318 322 325 323 325 332 332 340 342 316 321 314 318 307 297 298 276
336 339 339 343 337 328 343 349 344 142 338 328 327 326 326 334 340 324 289 271 294 311 308 298 291 285 294 306 308 314 316 308 296 302 311 303 312 295 301 296 297 289 284
330 324 325 333 333 327 349 347 345 332 312 311 308 307 302 305 312 316 263 241 258 262 265 264 250 268 260 275 268 295 299 296 296 294 294 291 312 299 296 296 296 289 285
307 295 304 325 335 331 345 348 2 355 327 310 298 304 305 306 315 323 316 268 269 267 276 285 290 292 299 311 313 321 311 321 310 319 295 284 309 321 300 279 290 307 298
285 304 313 324 325 340 346 347 349 332 328 316 316 329 326 320 317 313 303 291 286 279 281 284 285 293 301 292 311 290 274 303 310 312 310 351 327 337 315 308 325 320 326